15min,AgWx,beryljct,423,27FEB2019:00:00:00,39.5,12.94,41.5,41.2,41.6,41.9,41.2,55,57,54,0.504,26.7,27.3,26.5,6.84,5.2,179,8.2,8.1,0.00015,0.00020,.,32.9,24,0,0,41.6,10.85,0.00,0.00
15min,AgWx,beryljct,423,27FEB2019:00:15:00,40.1,12.94,41.7,41.5,41.1,41.6,40.8,58,59,56,0.503,27.5,27.7,27.2,5.02,6.0,180,8.7,8.5,0.00016,0.00021,.,33.0,24,0,0,41.6,10.85,0.00,0.00
15min,AgWx,beryljct,423,27FEB2019:00:30:00,40.6,12.94,42.2,42.3,41.8,42.3,41.3,56,57,54,0.499,27.2,27.4,26.9,6.138,6.7,182,6.4,10.2,0.00020,0.00026,.,33.0,24,0,0,42.1,10.85,0.00,0.00
15min,AgWx,beryljct,423,27FEB2019:00:45:00,41.0,12.94,42.8,42.2,42.1,42.5,41.7,55,57,54,0.500,27.2,27.5,26.9,5.174,5.7,165,6.6,7.2,0.00017,0.00023,.,33.0,24,0,0,42.4,10.85,0.00,0.00
15min,AgWx,beryljct,423,27FEB2019:01:00:00,41.2,12.94,42.4,41.7,42.0,42.7,41.3,55,57,53,0.494,27.0,27.4,26.7,1.337,4.1,171,16,6.8,0.00011,0.00016,.,32.9,24,0,0,41.9,10.85,0.00,0.00
15min,AgWx,beryljct,423,27FEB2019:01:15:00,40.9,12.92,41.8,41.3,42.0,42.3,41.3,54,56,53,0.491,26.6,26.8,26.5,0.219,1.2,196,9.4,4.0,-0.00009,-0.00011,.,33.0,24,0,0,39.9,10.85,0.00,0.00
15min,AgWx,beryljct,423,27FEB2019:01:30:00,40.2,12.92,42.2,41.8,41.6,41.9,41.3,54,56,54,0.484,26.4,26.8,26.2,1.14,1.0,170,11,3.0,-0.00011,-0.00015,.,33.0,24,0,0,38.7,10.85,0.00,0.00
15min,AgWx,beryljct,423,27FEB2019:01:45:00,39.8,12.92,41.0,40.2,40.8,41.9,39.3,57,61,54,0.489,26.5,26.9,26.2,5.524,3.7,177,30,6.2,0.00007,0.00012,.,33.0,24,0,0,39.3,10.85,0.00,0.00
15min,AgWx,beryljct,423,27FEB2019:02:00:00,39.7,12.9,41.2,40.7,40.6,40.9,40.2,57,59,55,0.476,26.4,26.8,25.9,5.415,5.5,203,6.4,6.6,0.00015,0.00020,.,33.0,23,0,0,40.0,10.85,0.00,0.00
15min,AgWx,beryljct,423,27FEB2019:02:15:00,39.9,12.91,41.7,41.2,40.9,41.3,40.4,56,57,55,0.494,26.3,26.8,25.9,8.92,6.9,190,7.9,10.1,0.00020,0.00025,.,33.0,23,0,0,40.9,10.85,0.00,0.00
15min,AgWx,beryljct,423,27FEB2019:02:30:00,40.2,12.91,40.9,40.6,40.9,41.4,40.6,58,59,56,0.502,27.1,27.4,26.7,9.62,7.8,187,6.5,11.3,0.00021,0.00026,.,33.0,24,0,0,41.2,10.85,0.00,0.00
15min,AgWx,beryljct,423,27FEB2019:02:45:00,40.4,12.9,41.2,40.5,41.0,41.5,40.5,57,59,56,0.502,27.0,27.3,26.7,10.35,10.0,176,7.9,12.9,0.00025,0.00031,.,33.0,25,0,0,41.0,10.85,0.00,0.00
15min,AgWx,beryljct,423,27FEB2019:03:00:00,40.2,12.9,40.8,40.5,40.3,40.6,39.8,59,60,58,0.496,27.0,27.2,26.8,7.848,7.7,182,8.1,11.2,0.00019,0.00024,.,33.0,23,0,0,40.1,10.85,0.00,0.00
15min,AgWx,beryljct,423,27FEB2019:03:15:00,40.2,12.9,40.4,39.9,40.4,40.7,39.9,58,59,57,0.494,26.8,26.9,26.6,10.13,9.2,174,6.5,14.0,0.00023,0.00028,.,33.0,24,0,0,40.4,10.85,0.00,0.00
15min,AgWx,beryljct,423,27FEB2019:03:30:00,40.1,12.89,40.6,40.4,40.2,40.6,39.7,58,60,57,0.486,26.6,27.0,26.4,11.33,10.9,170,7.5,14.1,0.00026,0.00031,.,33.0,24,0,0,40.4,10.85,0.00,0.00
15min,AgWx,beryljct,423,27FEB2019:03:45:00,40.1,12.89,41.4,40.3,40.2,40.5,40.0,57,58,57,0.482,26.4,26.5,26.2,10.28,10.5,176,7.1,13.2,0.00025,0.00030,.,33.0,24,0,0,40.2,10.85,0.00,0.00
15min,AgWx,beryljct,423,27FEB2019:04:00:00,40.1,12.89,41.5,41.3,41.0,41.4,40.4,55,57,54,0.473,26.0,26.3,25.8,6.533,9.2,184,9.5,13.0,0.00026,0.00031,.,33.0,24,0,0,40.7,10.85,0.00,0.00
15min,AgWx,beryljct,423,27FEB2019:04:15:00,40.2,12.89,40.5,40.7,41.1,41.4,40.7,54,55,53,0.469,25.7,25.9,25.5,2.806,5.4,162,12,8.9,0.00016,0.00022,.,33.0,24,0,0,40.1,10.85,0.00,0.00
15min,AgWx,beryljct,423,27FEB2019:04:30:00,39.9,12.88,41.2,40.6,40.7,41.0,40.5,55,55,54,0.472,25.6,25.7,25.5,3.31,4.1,189,16,7.4,0.00010,0.00015,.,33.0,23,0,0,39.3,10.85,0.00,0.00
15min,AgWx,beryljct,423,27FEB2019:04:45:00,39.9,12.89,41.8,41.1,41.0,41.3,40.6,54,55,54,0.475,25.7,26.0,25.6,11.38,8.4,203,9.5,13.8,0.00024,0.00030,.,33.0,24,0,0,40.5,10.85,0.00,0.00
15min,AgWx,beryljct,423,27FEB2019:05:00:00,40.2,12.88,41.1,40.5,40.8,41.2,40.4,55,56,54,0.480,25.9,26.1,25.7,10.37,9.3,198,7.4,12.8,0.00026,0.00031,.,33.0,24,0,0,40.7,10.85,0.00,0.00
15min,AgWx,beryljct,423,27FEB2019:05:15:00,40.2,12.88,41.1,40.5,40.3,40.7,40.0,57,58,55,0.479,26.1,26.3,25.9,10.81,9.2,190,7.0,12.7,0.00024,0.00029,.,33.0,23,0,0,40.1,10.85,0.00,0.00
15min,AgWx,beryljct,423,27FEB2019:05:30:00,40.3,12.88,40.8,40.2,40.4,40.6,40.2,57,58,56,0.484,26.2,26.4,26.0,10.83,10.3,186,7.2,13.2,0.00026,0.00031,.,33.0,24,0,0,40.7,10.85,0.00,0.00
15min,AgWx,beryljct,423,27FEB2019:05:45:00,40.1,12.87,40.2,39.9,40.1,40.4,39.8,57,58,57,0.482,26.2,26.4,26.1,10.92,11.3,183,6.7,14.7,0.00026,0.00032,.,33.0,24,0,0,40.1,10.84,0.00,0.00
15min,AgWx,beryljct,423,27FEB2019:06:00:00,39.8,12.87,39.2,39.0,39.5,39.8,39.0,59,60,58,0.480,26.2,26.4,26.0,6.511,8.7,178,7.7,12.4,0.00021,0.00026,.,32.9,24,0,0,39.2,10.85,0.00,0.00
15min,AgWx,beryljct,423,27FEB2019:06:15:00,39.2,12.87,40.8,40.1,39.0,40.1,38.0,59,62,56,0.472,26.0,26.4,25.7,8.75,7.2,176,12,10.9,0.00017,0.00022,.,33.0,24,0,0,38.4,10.85,0.00,0.00
15min,AgWx,beryljct,423,27FEB2019:06:30:00,39.1,12.85,41.3,40.8,40.3,40.8,40.0,55,56,54,0.463,25.4,25.7,25.1,6.84,5.8,203,13,11.4,0.00046,0.00080,.,33.0,24,0,0,39.3,10.85,0.00,0.00
15min,AgWx,beryljct,423,27FEB2019:06:45:00,39.3,12.86,40.5,40.3,40.6,41.0,40.3,54,55,53,0.469,25.4,25.6,25.2,8.59,7.8,195,9.5,11.5,0.00058,0.00102,.,33.0,24,0,0,39.8,10.85,0.00,0.00
15min,AgWx,beryljct,423,27FEB2019:07:00:00,39.6,12.86,41.0,40.7,40.6,40.9,40.2,54,55,53,0.460,25.3,25.6,25.0,6.248,7.7,192,11,12.1,0.00059,0.00102,.,33.0,24,1,0,40.0,10.85,0.00,0.00
15min,AgWx,beryljct,423,27FEB2019:07:15:00,39.7,12.86,40.8,40.6,40.8,41.1,40.4,53,54,52,0.462,25.0,25.3,24.9,9.27,6.9,202,9.1,11.6,0.00059,0.00100,.,33.0,24,9,0,40.0,10.85,0.00,0.00
15min,AgWx,beryljct,423,27FEB2019:07:30:00,40.0,12.9,41.7,41.2,40.8,41.3,40.5,53,54,52,0.459,25.1,25.4,25.0,11.75,10.2,198,7.1,14.5,0.00084,0.00139,.,33.0,24,34,0,41.9,10.85,0.00,0.00
15min,AgWx,beryljct,423,27FEB2019:07:45:00,40.4,12.97,41.4,40.7,40.9,41.4,40.6,53,55,52,0.469,25.3,25.6,24.9,9.76,10.0,199,8.1,16.5,0.00092,0.00147,.,33.0,24,57,0,42.7,10.84,0.00,0.00
15min,AgWx,beryljct,423,27FEB2019:08:00:00,40.8,13,42.5,41.5,41.2,41.7,40.7,54,55,52,0.470,25.6,25.9,25.3,12.54,10.0,197,8.1,12.5,0.00103,0.00158,.,32.9,24,106,0,45.1,10.85,0.00,0.00
15min,AgWx,beryljct,423,27FEB2019:08:15:00,41.5,13.04,42.1,42.2,41.8,42.2,41.5,52,54,51,0.463,25.6,26.0,25.2,10.63,11.9,195,6.7,15.4,0.00118,0.00183,.,33.0,23,115,0,45.5,10.84,0.00,0.00
15min,AgWx,beryljct,423,27FEB2019:08:30:00,41.9,13.08,43.2,42.2,41.9,42.2,41.6,52,53,51,0.465,25.5,25.9,25.3,9.14,9.9,197,6.8,13.0,0.00113,0.00172,.,33.0,24,110,0,45.2,10.84,0.00,0.00
15min,AgWx,beryljct,423,27FEB2019:08:45:00,42.7,13.43,44.0,43.6,43.1,43.7,42.2,49,52,47,0.470,25.4,26.4,24.7,10.57,10.2,200,8.2,14.8,0.00147,0.00212,.,33.0,24,209,0,50.1,10.84,0.00,0.00
15min,AgWx,beryljct,423,27FEB2019:09:00:00,43.7,13.52,43.3,43.6,43.6,43.7,43.4,49,51,48,0.467,25.8,26.5,25.3,13.75,13.4,190,7.1,20.2,0.00170,0.00248,.,33.0,24,244,0,50.9,10.84,0.00,0.00
15min,AgWx,beryljct,423,27FEB2019:09:15:00,44.8,14.52,44.9,44.7,44.2,44.9,43.4,49,51,47,0.475,26.2,27.4,25.4,14.32,13.8,186,8.0,20.2,0.00201,0.00284,.,33.0,24,349,0,52.8,10.84,0.00,0.00
15min,AgWx,beryljct,423,27FEB2019:09:30:00,45.7,14.54,45.2,44.7,44.5,44.7,44.3,48,49,47,0.472,26.2,26.7,25.6,19.14,16.0,185,7.5,21.9,0.00207,0.00298,.,33.0,24,333,0,52.0,10.84,0.00,0.00
15min,AgWx,beryljct,423,27FEB2019:09:45:00,46.0,13.54,45.0,44.5,44.4,45.0,44.0,49,51,45,0.449,26.2,27.1,24.3,19.23,16.9,189,6.4,27.3,0.00180,0.00271,.,33.0,23,206,0,49.4,10.84,0.00,0.00
15min,AgWx,beryljct,423,27FEB2019:10:00:00,46.0,14.53,45.0,44.9,44.5,44.9,44.1,47,48,45,0.472,25.4,26.3,24.4,14.05,15.9,196,7.4,21.6,0.00185,0.00277,.,33.0,24,214,0,49.4,10.84,0.00,0.00
15min,AgWx,beryljct,423,27FEB2019:10:15:00,46.4,14.49,46.5,46.1,45.3,46.1,44.8,46,49,45,0.500,25.9,27.6,24.9,18.83,17.7,199,7.7,21.8,0.00228,0.00330,.,33.0,24,358,0,52.6,10.84,0.00,0.00
15min,AgWx,beryljct,423,27FEB2019:10:30:00,47.3,14.56,47.4,46.9,46.3,46.9,46.0,46,49,44,0.494,26.6,28.4,25.8,17.36,17.0,204,6.5,22.0,0.00264,0.00369,.,33.0,25,469,0,56.1,10.84,0.00,0.00
15min,AgWx,beryljct,423,27FEB2019:10:45:00,47.9,14.48,46.7,46.4,46.4,47.0,46.1,45,47,44,0.494,26.5,27.3,25.4,11.86,15.3,203,8.2,19.1,0.00220,0.00319,.,33.0,24,301,0,53.4,10.84,0.00,0.00
15min,AgWx,beryljct,423,27FEB2019:11:00:00,48.3,14.47,48.7,48.2,47.1,48.5,46.2,45,48,43,0.518,26.7,29.1,25.0,12.08,14.4,200,7.9,19.0,0.00271,0.00372,.,33.0,24,474,0,56.3,10.84,0.00,0.00
15min,AgWx,beryljct,423,27FEB2019:11:15:00,49.4,14.43,48.3,48.1,48.3,49.0,47.9,44,48,42,0.487,27.6,30.0,25.8,18.61,15.8,196,8.4,22.0,0.00303,0.00413,.,33.0,24,551,0,59.0,10.84,0.00,0.00
15min,AgWx,beryljct,423,27FEB2019:11:30:00,50.2,14.5,49.2,48.7,48.4,48.8,48.1,42,44,40,0.479,26.4,27.8,25.3,16.46,18.9,201,8.6,23.7,0.00320,0.00446,.,33.0,24,576,0,58.3,10.84,0.00,0.00
15min,AgWx,beryljct,423,27FEB2019:11:45:00,51.1,14.42,50.2,49.8,49.5,49.9,48.7,41,45,38,0.500,27.0,29.0,25.2,16.59,18.7,209,9.2,25.2,0.00391,0.00524,.,33.0,24,787,0,62.5,10.84,0.00,0.00
15min,AgWx,beryljct,423,27FEB2019:12:00:00,52.1,13.99,50.5,49.9,50.1,50.8,49.6,42,45,40,0.527,27.7,30.2,26.3,15.96,15.5,211,9.7,22.0,0.00388,0.00511,.,33.0,24,766,0,63.1,10.83,0.00,0.00
15min,AgWx,beryljct,423,27FEB2019:12:15:00,52.9,13.99,51.3,50.6,50.2,51.0,49.7,44,47,40,0.527,29.1,31.5,26.7,12.47,15.7,193,9.3,21.5,0.00391,0.00511,.,33.0,24,788,0,62.5,10.83,0.00,0.00
15min,AgWx,beryljct,423,27FEB2019:12:30:00,54.0,13.95,52.2,51.8,51.1,52.1,50.6,44,48,41,0.558,29.8,32.1,27.7,12.76,12.7,196,12,18.5,0.00438,0.00551,.,33.0,24,880,0,67.2,10.83,0.00,0.00
15min,AgWx,beryljct,423,27FEB2019:12:45:00,54.9,13.96,49.6,50.2,51.4,51.9,50.2,41,46,39,0.501,28.7,31.6,26.5,18.63,14.7,211,14,19.6,0.00402,0.00526,.,33.0,24,773,0,64.4,10.83,0.00,0.00
15min,AgWx,beryljct,423,27FEB2019:13:00:00,54.8,13.97,51.5,51.0,51.0,51.6,50.2,41,45,38,0.511,28.4,31.2,26.2,15.48,15.4,219,8.8,20.4,0.00407,0.00533,.,33.0,24,793,0,61.4,10.83,0.00,0.00
15min,AgWx,beryljct,423,27FEB2019:13:15:00,54.7,13.94,51.0,51.5,51.1,51.5,50.8,41,44,38,0.541,28.0,30.0,26.2,17.87,15.4,209,11,21.1,0.00398,0.00526,.,33.0,23,764,0,61.5,10.83,0.00,0.00
15min,AgWx,beryljct,423,27FEB2019:13:30:00,54.8,13.97,51.5,51.5,51.5,51.9,51.2,40,43,37,0.494,28.1,30.1,26.1,15.76,15.4,216,8.5,19.9,0.00396,0.00525,.,33.0,24,748,0,60.8,10.83,0.00,0.00
15min,AgWx,beryljct,423,27FEB2019:13:45:00,54.9,13.92,52.3,51.6,51.5,52.5,50.9,41,45,37,0.542,28.5,31.8,25.7,12.82,12.7,204,16,16.6,0.00372,0.00486,.,33.0,24,692,0,60.4,10.83,0.00,0.00
15min,AgWx,beryljct,423,27FEB2019:14:00:00,55.2,13.93,53.4,52.3,51.6,52.3,50.9,41,47,38,0.622,28.9,32.5,26.1,10,12.9,192,14,18.7,0.00380,0.00495,.,33.0,24,713,0,60.1,10.83,0.00,0.00
15min,AgWx,beryljct,423,27FEB2019:14:15:00,55.4,13.98,51.1,51.6,51.8,52.5,51.2,41,46,39,0.517,28.8,32.1,27.3,14.05,13.6,201,17,17.8,0.00375,0.00494,.,33.0,24,693,0,59.7,10.83,0.01,0.00
15min,AgWx,beryljct,423,27FEB2019:14:30:00,55.6,13.91,51.8,51.6,51.7,52.1,51.3,41,44,38,0.521,28.5,30.7,26.5,13.72,12.6,198,13,19.8,0.00362,0.00476,.,33.0,24,663,0,58.8,10.83,0.00,0.00
15min,AgWx,beryljct,423,27FEB2019:14:45:00,55.9,13.91,53.0,52.2,52.0,52.5,51.6,41,43,38,0.573,28.9,30.7,27.1,11.73,12.1,194,13,18.8,0.00342,0.00453,.,33.0,24,612,0,59.1,10.83,0.00,0.00
15min,AgWx,beryljct,423,27FEB2019:15:00:00,56.1,13.9,52.0,52.1,52.0,52.6,51.6,40,44,37,0.540,28.6,30.9,26.8,12.43,12.2,199,14,18.8,0.00347,0.00460,.,33.0,24,623,0,58.8,10.83,0.00,0.00
15min,AgWx,beryljct,423,27FEB2019:15:15:00,56.0,13.99,51.2,51.3,51.7,52.3,51.2,41,44,38,0.512,28.6,31.1,26.7,19.2,15.2,187,10,21.7,0.00293,0.00414,.,32.9,24,480,0,56.3,10.83,0.00,0.00
15min,AgWx,beryljct,423,27FEB2019:15:30:00,55.4,13.94,51.6,51.3,51.3,51.6,51.0,40,43,38,0.521,28.0,29.8,26.3,12.25,15.7,191,13,19.7,0.00274,0.00397,.,33.0,24,425,0,55.5,10.83,0.00,0.00
15min,AgWx,beryljct,423,27FEB2019:15:45:00,55.2,14.01,52.3,51.6,51.7,52.3,51.2,40,42,38,0.531,28.3,30.1,27.0,12.04,15.4,194,10,20.4,0.00303,0.00428,.,33.0,24,501,0,56.2,10.83,0.00,0.00
15min,AgWx,beryljct,423,27FEB2019:16:00:00,55.0,13.93,51.8,51.6,51.5,51.8,51.1,40,44,37,0.509,28.1,30.5,26.4,11.47,12.9,191,8.7,19.1,0.00251,0.00361,.,33.0,24,392,0,55.7,10.83,0.00,0.00
15min,AgWx,beryljct,423,27FEB2019:16:15:00,54.6,13.95,51.3,51.2,51.2,51.8,50.8,40,43,38,0.530,27.8,29.5,26.3,13.72,12.0,181,9.0,16.4,0.00214,0.00316,.,33.0,24,312,0,55.2,10.83,0.00,0.00
15min,AgWx,beryljct,423,27FEB2019:16:30:00,53.9,13.99,50.6,50.2,50.8,51.2,50.2,40,42,37,0.499,27.2,28.8,25.7,15.08,12.5,194,11,17.2,0.00171,0.00274,.,33.0,24,206,0,53.9,10.83,0.00,0.00
15min,AgWx,beryljct,423,27FEB2019:16:45:00,53.0,14.01,50.3,50.0,50.0,50.2,49.9,40,43,39,0.508,26.9,28.3,25.7,13.22,14.8,186,7.2,19.3,0.00188,0.00299,.,33.0,24,227,0,52.1,10.83,0.00,0.00
15min,AgWx,beryljct,423,27FEB2019:17:00:00,52.4,13.99,50.2,49.9,49.9,50.1,49.7,40,43,38,0.481,26.4,28.3,25.4,16.64,14.9,185,7.3,18.6,0.00190,0.00302,.,33.0,23,230,0,51.5,10.83,0.00,0.00
15min,AgWx,beryljct,423,27FEB2019:17:15:00,52.3,13.95,50.1,50.1,50.0,50.2,49.9,38,41,37,0.485,25.7,27.2,24.6,15.48,15.6,190,5.8,19.0,0.00199,0.00317,.,33.0,24,232,0,51.2,10.83,0.00,0.00
15min,AgWx,beryljct,423,27FEB2019:17:30:00,52.2,13.96,50.2,49.7,49.8,50.0,49.7,39,41,37,0.466,26.0,26.9,24.8,13.7,13.7,189,7.9,18.8,0.00076,0.00088,.,33.0,25,191,0,51.4,10.83,0.00,0.00
15min,AgWx,beryljct,423,27FEB2019:17:45:00,51.8,13.95,48.9,48.9,49.3,49.7,48.9,40,43,38,0.483,26.0,27.4,25.1,11.97,12.3,188,6.5,16.1,0.00068,0.00079,.,33.0,24,147,0,50.6,10.83,0.00,0.00
15min,AgWx,beryljct,423,27FEB2019:18:00:00,51.2,13.72,48.2,48.2,48.7,49.1,48.2,41,44,39,0.488,26.2,27.3,25.1,9.49,11.8,188,6.8,16.4,0.00060,0.00071,.,33.0,24,102,0,48.9,10.83,0.00,0.00
15min,AgWx,beryljct,423,27FEB2019:18:15:00,50.0,13.19,46.1,46.2,47.2,48.2,46.1,45,47,42,0.494,26.8,27.3,26.4,6.423,6.8,189,7.1,11.2,0.00033,0.00043,.,33.0,24,38,0,46.4,10.83,0.00,0.00
15min,AgWx,beryljct,423,27FEB2019:18:30:00,48.1,13.14,43.8,43.8,44.9,46.2,43.8,49,51,47,0.498,27.0,27.3,26.7,4.428,4.9,198,9.0,7.5,0.00016,0.00023,.,33.0,24,10,0,43.1,10.83,0.00,0.00
15min,AgWx,beryljct,423,27FEB2019:18:45:00,46.1,13.11,44.4,42.2,42.8,43.7,41.8,54,56,51,0.497,27.1,27.5,26.8,7.607,5.4,216,9.1,7.6,0.00013,0.00019,.,33.0,23,1,0,41.1,10.84,0.01,0.00
15min,AgWx,beryljct,423,27FEB2019:19:00:00,44.5,13.08,43.0,41.8,42.4,43.0,41.7,54,55,52,0.491,26.7,26.9,26.5,6.927,6.8,204,3.7,7.8,0.00018,0.00024,.,33.0,23,0,0,40.5,10.84,0.00,0.00
15min,AgWx,beryljct,423,27FEB2019:19:15:00,43.2,13.07,42.5,42.2,41.8,42.2,41.3,54,55,52,0.475,26.3,26.7,25.9,3.88,5.8,199,4.2,7.1,0.00014,0.00020,.,33.0,24,0,0,39.8,10.84,0.00,0.00
15min,AgWx,beryljct,423,27FEB2019:19:30:00,42.3,13.07,42.7,41.6,42.1,42.4,41.4,52,54,51,0.473,25.8,26.3,25.6,6.971,5.5,223,6.5,7.2,0.00014,0.00020,.,33.0,24,0,0,40.5,10.84,0.00,0.00
15min,AgWx,beryljct,423,27FEB2019:19:45:00,41.5,13.05,39.3,38.3,40.7,42.0,38.2,56,63,52,0.486,26.0,27.0,25.5,5.59,6.3,247,9.5,7.1,0.00015,0.00020,.,33.0,24,0,0,39.8,10.84,0.00,0.00
15min,AgWx,beryljct,423,27FEB2019:20:00:00,40.3,13.05,39.3,38.0,38.2,39.6,37.0,63,66,59,0.482,26.5,26.9,25.9,4.889,5.5,253,4.5,7.0,0.00007,0.00011,.,33.0,24,0,0,37.4,10.84,0.00,0.00
15min,AgWx,beryljct,423,27FEB2019:20:15:00,39.3,13.04,37.6,37.0,37.9,38.6,36.9,63,66,62,0.494,26.6,26.9,26.1,7.059,6.3,258,4.7,7.7,0.00009,0.00013,.,33.0,23,0,0,37.4,10.84,0.00,0.00
15min,AgWx,beryljct,423,27FEB2019:20:30:00,38.5,13.02,37.2,36.9,36.8,37.2,36.4,67,68,65,0.483,26.8,27.1,26.3,6.226,6.5,267,5.7,7.7,0.00007,0.00011,.,33.0,23,0,0,36.3,10.84,0.00,0.00
15min,AgWx,beryljct,423,27FEB2019:20:45:00,38.2,13.01,36.0,36.4,38.0,39.5,36.4,62,66,58,0.481,26.2,26.8,25.7,5.59,6.0,260,30,7.1,0.00009,0.00013,.,33.0,24,0,0,37.3,10.85,0.00,0.00
15min,AgWx,beryljct,423,27FEB2019:21:00:00,38.0,13,35.7,36.8,38.6,41.5,36.3,60,68,52,0.471,25.9,27.2,25.2,4.362,4.8,182,21,7.3,0.00006,0.00010,.,33.0,24,0,0,36.9,10.85,0.00,0.00
15min,AgWx,beryljct,423,27FEB2019:21:15:00,37.4,13,39.7,37.7,36.1,37.7,35.3,66,69,62,0.475,25.9,26.6,25.4,4.275,4.7,209,9.3,5.5,0.00002,0.00005,.,33.0,24,0,0,35.7,10.85,0.00,0.00
15min,AgWx,beryljct,423,27FEB2019:21:30:00,37.0,13,39.3,38.1,39.0,42.2,37.6,58,62,49,0.476,25.5,26.1,24.5,6.489,4.7,242,9.0,6.5,0.00007,0.00011,.,33.0,24,0,0,37.9,10.85,0.00,0.00
15min,AgWx,beryljct,423,27FEB2019:21:45:00,36.9,12.99,37.2,36.8,37.4,38.3,36.8,63,65,61,0.482,26.1,26.4,25.7,5.656,6.1,256,2.3,7.3,0.00008,0.00012,.,33.0,23,0,0,36.9,10.85,0.00,0.00
15min,AgWx,beryljct,423,27FEB2019:22:00:00,36.5,12.97,35.5,33.6,34.8,36.9,33.3,70,75,65,0.479,26.0,27.0,25.0,0.658,2.5,165,67,6.1,-0.00007,-0.00008,.,33.0,24,0,0,35.7,10.85,0.00,0.00
15min,AgWx,beryljct,423,27FEB2019:22:15:00,35.9,12.97,35.4,34.9,35.1,36.1,33.7,68,74,64,0.458,25.7,26.4,24.8,3.113,1.4,71,28,3.3,-0.00014,-0.00019,.,33.0,24,0,0,35.9,10.85,0.00,0.00
15min,AgWx,beryljct,423,27FEB2019:22:30:00,35.5,12.95,33.2,32.8,33.5,34.9,32.6,71,75,67,0.467,25.3,26.2,24.8,0,1.9,76,12,3.5,-0.00011,-0.00013,.,33.0,24,0,0,35.3,10.86,0.00,0.00
15min,AgWx,beryljct,423,27FEB2019:22:45:00,34.8,12.95,33.0,31.3,32.0,33.2,30.9,77,82,73,0.480,25.7,26.4,24.9,3.617,1.9,99,74,4.2,-0.00012,-0.00015,.,33.0,23,0,0,35.6,10.85,0.00,0.00
15min,AgWx,beryljct,423,27FEB2019:23:00:00,34.1,12.94,31.3,30.6,30.9,31.6,29.9,79,82,77,0.467,25.1,26.2,24.3,0,1.8,338,45,3.8,-0.00012,-0.00015,.,33.0,24,0,0,35.7,10.86,0.00,0.00
15min,AgWx,beryljct,423,27FEB2019:23:15:00,33.4,12.8,31.0,31.2,31.2,32.0,30.3,79,82,76,0.470,25.6,26.0,25.0,1.513,2.6,241,9.4,5.9,-0.00009,-0.00011,.,33.0,24,0,0,35.5,10.86,0.00,0.00
15min,AgWx,beryljct,423,27FEB2019:23:30:00,32.9,12.91,30.9,30.6,30.5,31.0,29.7,82,85,80,0.465,25.7,26.3,25.3,1.863,1.7,201,24,2.5,-0.00013,-0.00017,.,33.0,24,0,0,36.0,10.86,0.00,0.00
15min,AgWx,bigpiney,439,27FEB2019:00:00:00,31.4,12.8,28.9,28.5,28.9,29.7,28.4,74,76,72,0.390,21.6,21.9,21.0,1.271,1.2,282,41,3.4,-0.00015,-0.00020,29.2,29.1,7,0,0,0.0,0.09,0.00,0.00
15min,AgWx,bigpiney,439,27FEB2019:00:15:00,30.8,12.79,26.8,26.9,27.5,28.5,26.8,77,79,74,0.381,21.2,21.8,20.4,4.341,1.3,282,84,4.3,-0.00014,-0.00019,29.2,29.1,7,0,0,0.0,0.09,0.00,0.00
15min,AgWx,bigpiney,439,27FEB2019:00:30:00,30.1,12.78,24.7,25.3,25.9,26.8,25.3,79,80,77,0.368,20.3,20.6,19.8,3.661,3.8,337,25,5.1,-0.00005,-0.00005,29.3,29.1,7,0,0,0.0,0.09,0.00,0.00
15min,AgWx,bigpiney,439,27FEB2019:00:45:00,29.2,12.79,23.1,24.3,24.6,25.2,24.1,81,82,79,0.356,19.5,20.2,18.9,3.376,3.4,285,12,4.4,-0.00006,-0.00007,29.3,29.1,7,0,0,0.0,0.09,0.00,0.00
15min,AgWx,bigpiney,439,27FEB2019:01:00:00,28.2,12.78,26.1,25.6,24.7,25.6,23.4,79,82,76,0.357,19.2,19.9,18.0,4.077,3.6,286,18,4.3,-0.00005,-0.00006,29.3,29.2,8,0,0,0.0,0.09,0.00,0.00
15min,AgWx,bigpiney,439,27FEB2019:01:15:00,27.3,12.77,23.9,23.2,24.1,25.7,23.0,78,80,76,0.340,18.1,19.2,17.4,3.617,2.0,331,24,4.3,-0.00010,-0.00012,29.3,29.2,8,0,0,0.0,0.09,0.00,0.00
15min,AgWx,bigpiney,439,27FEB2019:01:30:00,26.6,12.76,21.8,21.5,22.7,23.6,21.3,79,82,78,0.326,17.3,18.2,16.0,2.411,2.8,305,38,4.3,-0.00007,-0.00008,29.3,29.2,8,0,0,0.0,0.09,0.00,0.00
15min,AgWx,bigpiney,439,27FEB2019:01:45:00,25.9,12.76,21.5,21.4,22.1,22.5,21.4,82,83,81,0.323,17.4,17.9,16.7,4.056,3.5,285,8.6,4.9,-0.00006,-0.00007,29.4,29.2,8,0,0,0.0,0.09,0.00,0.00
15min,AgWx,bigpiney,439,27FEB2019:02:00:00,25.2,12.76,23.5,22.3,21.4,22.3,20.3,83,85,81,0.340,17.1,18.0,15.7,4.516,3.9,283,15,5.0,-0.00005,-0.00006,29.4,29.2,8,0,0,0.0,0.09,0.00,0.00
15min,AgWx,bigpiney,439,27FEB2019:02:15:00,24.8,12.75,23.2,22.6,22.5,22.7,22.4,82,83,81,0.339,17.7,18.1,17.5,3.705,4.1,283,10,5.0,-0.00005,-0.00005,29.4,29.3,8,0,0,0.0,0.09,0.00,0.00
15min,AgWx,bigpiney,439,27FEB2019:02:30:00,24.6,12.75,19.7,19.3,21.0,22.7,19.3,82,84,80,0.303,16.4,18.0,15.1,4.801,4.1,232,22,6.5,-0.00005,-0.00005,29.4,29.2,8,0,0,0.0,0.09,0.00,0.00
15min,AgWx,bigpiney,439,27FEB2019:02:45:00,24.4,12.74,20.3,19.6,20.1,21.0,19.3,85,86,84,0.310,16.2,17.3,15.2,5.02,4.5,225,15,5.9,-0.00005,-0.00005,29.4,29.3,8,0,0,0.0,0.09,0.00,0.00
15min,AgWx,bigpiney,439,27FEB2019:03:00:00,24.2,12.73,20.8,20.0,19.7,20.1,19.4,85,86,84,0.317,16.0,16.4,15.4,5.634,4.6,221,8.6,6.3,-0.00004,-0.00004,29.4,29.3,8,0,0,0.0,0.09,0.00,0.00
15min,AgWx,bigpiney,439,27FEB2019:03:15:00,24.0,12.72,20.3,20.3,20.3,21.0,19.5,85,86,83,0.315,16.4,17.2,15.5,4.911,4.6,222,8.9,6.2,-0.00004,-0.00005,29.4,29.3,8,0,0,0.0,0.09,0.00,0.00
15min,AgWx,bigpiney,439,27FEB2019:03:30:00,23.7,12.72,21.5,20.9,19.8,20.9,19.0,85,86,84,0.321,15.9,16.8,15.1,4.976,4.4,242,16,5.9,-0.00005,-0.00005,29.4,29.3,8,0,0,0.0,0.09,0.00,0.00
15min,AgWx,bigpiney,439,27FEB2019:03:45:00,23.4,12.72,21.2,20.6,20.7,21.0,20.5,83,84,82,0.313,16.2,16.7,15.8,4.143,4.7,238,9.7,6.7,-0.00004,-0.00004,29.5,29.3,8,0,0,0.0,0.09,0.00,0.00
15min,AgWx,bigpiney,439,27FEB2019:04:00:00,23.2,12.7,19.2,18.9,19.5,20.6,18.8,83,83,81,0.295,15.0,16.1,14.3,3.573,4.1,226,11,5.8,-0.00005,-0.00005,29.5,29.3,8,0,0,0.0,0.09,0.00,0.00
15min,AgWx,bigpiney,439,27FEB2019:04:15:00,22.7,12.7,18.1,18.9,18.7,19.2,18.3,84,85,83,0.295,14.6,15.3,14.0,2.148,2.1,297,63,4.3,-0.00009,-0.00011,29.5,29.3,8,0,0,0.0,0.09,0.00,0.00
15min,AgWx,bigpiney,439,27FEB2019:04:30:00,22.2,12.69,15.8,15.6,17.4,18.8,15.6,85,87,83,0.264,13.6,15.1,12.0,0,1.8,316,39,3.1,-0.00010,-0.00012,29.5,29.4,8,0,0,0.0,0.09,0.00,0.00
15min,AgWx,bigpiney,439,27FEB2019:04:45:00,21.5,12.69,18.8,17.9,16.9,17.9,15.5,87,88,85,0.295,13.7,14.7,12.1,2.565,1.0,221,31,3.1,-0.00013,-0.00017,29.5,29.4,8,0,0,0.0,0.09,0.00,0.00
15min,AgWx,bigpiney,439,27FEB2019:05:00:00,20.8,12.67,15.9,15.3,17.1,19.0,15.1,85,87,83,0.262,13.4,15.6,11.2,2.784,2.8,208,9.3,5.6,-0.00007,-0.00008,29.5,29.4,8,0,0,0.0,0.09,0.00,0.00
15min,AgWx,bigpiney,439,27FEB2019:05:15:00,20.3,12.68,16.2,16.0,16.3,16.9,15.4,86,88,84,0.264,12.9,13.7,12.1,5.48,3.6,230,12,5.5,-0.00006,-0.00006,29.5,29.4,8,0,0,0.0,0.09,0.00,0.00
15min,AgWx,bigpiney,439,27FEB2019:05:30:00,20.0,12.67,15.4,14.8,15.3,16.0,14.8,85,86,84,0.253,11.7,12.2,11.2,5.02,3.9,215,11,5.9,-0.00005,-0.00005,29.5,29.4,8,0,0,0.0,0.09,0.00,0.00
15min,AgWx,bigpiney,439,27FEB2019:05:45:00,19.5,12.66,14.4,14.2,14.6,15.2,14.2,85,86,85,0.247,11.1,11.7,10.5,4.406,3.9,213,11,5.8,-0.00005,-0.00005,29.5,29.4,8,0,0,0.0,0.09,0.00,0.00
15min,AgWx,bigpiney,439,27FEB2019:06:00:00,19.1,12.66,14.4,13.9,13.8,14.2,13.5,86,87,86,0.247,10.4,10.7,10.1,0,1.8,244,24,4.7,-0.00009,-0.00011,29.6,29.4,8,0,0,0.0,0.09,0.00,0.00
15min,AgWx,bigpiney,439,27FEB2019:06:15:00,18.6,12.66,15.4,14.8,14.6,15.2,13.8,87,88,86,0.257,11.4,12.2,10.6,1.14,1.5,227,27,4.0,-0.00010,-0.00013,29.6,29.4,8,0,0,0.0,0.09,0.00,0.00
15min,AgWx,bigpiney,439,27FEB2019:06:30:00,18.5,12.65,15.1,14.0,15.1,15.8,14.0,86,87,84,0.245,11.7,12.5,10.1,0.943,1.3,201,78,3.7,-0.00011,-0.00014,29.6,29.5,8,0,0,0.0,0.09,0.00,0.00
15min,AgWx,bigpiney,439,27FEB2019:06:45:00,18.6,12.65,16.3,16.0,15.0,16.0,14.1,88,89,86,0.275,12.0,13.1,10.6,1.644,0.5,74,14,1.6,-0.00014,-0.00020,29.6,29.4,8,0,0,0.0,0.09,0.00,0.00
15min,AgWx,bigpiney,439,27FEB2019:07:00:00,18.9,12.66,17.3,16.6,16.4,16.8,15.8,87,88,86,0.277,13.1,13.4,12.8,0,1.2,122,15,2.8,-0.00011,-0.00015,29.6,29.5,8,2,0,0.0,0.09,0.00,0.00
15min,AgWx,bigpiney,439,27FEB2019:07:15:00,19.1,12.78,18.4,18.2,17.6,18.3,16.7,85,86,84,0.286,14.0,14.6,13.3,2.368,0.5,283,30,2.9,-0.00013,-0.00019,29.6,29.5,8,14,0,0.0,0.09,0.00,0.00
15min,AgWx,bigpiney,439,27FEB2019:07:30:00,19.7,12.83,18.3,18.0,18.0,18.2,17.9,83,84,83,0.283,13.9,14.1,13.7,1.754,0.9,337,25,2.2,-0.00020,-0.00020,29.6,29.4,8,27,0,0.0,0.09,0.00,0.00
15min,AgWx,bigpiney,439,27FEB2019:07:45:00,20.3,12.92,19.1,18.3,17.9,18.3,17.6,84,85,83,0.293,13.9,14.5,13.5,0,1.0,32,6.7,3.1,0.00001,0.00002,29.6,29.5,8,33,0,0.0,0.09,0.00,0.00
15min,AgWx,bigpiney,439,27FEB2019:08:00:00,20.9,13.02,18.8,18.4,18.4,18.6,18.2,84,85,83,0.288,14.2,14.5,13.9,0.241,0.4,49,19,1.4,0.00009,0.00010,29.6,29.5,8,38,0,0.0,0.09,0.00,0.00
15min,AgWx,bigpiney,439,27FEB2019:08:15:00,21.5,13.57,19.1,19.0,18.5,19.0,18.2,83,84,83,0.296,14.2,14.8,13.8,0.723,0.5,326,47,1.1,0.00015,0.00017,29.6,29.5,8,63,0,0.0,0.09,0.00,0.00
15min,AgWx,bigpiney,439,27FEB2019:08:30:00,22.0,15,20.2,19.7,19.3,19.7,18.9,83,84,83,0.308,15.1,15.7,14.5,2.039,2.1,301,16,3.2,0.00023,0.00028,29.6,29.5,8,85,0,0.0,0.09,0.00,0.00